sat.trackr.live / text

‹ back to catalog

STARLINK-35436

NORAD 65932 · 2025-225Y

PAYLOAD ACTIVE UNKNOWN

§ Identity

Operator
Country
US
Launch date
2025-10-08
Launch site
AFWTR
Launch vehicle
Mass (kg)
RCS (m²)

Purposes: comms

External: N2YO · Heavens-Above · Gunter

§ Orbital elements

Epoch: 2026-09-20T20:27:52.760736Z

Period
93.85 min
Inclination
53.1599°
Eccentricity
0.0001215
Mean motion
15.34363714 rev/d
Perigee alt
462.0 km
Apogee alt
463.6 km
Semi-major
6,840.9 km
B*
3.5379e-4
RAAN
338.0889°
Arg perigee
52.6814°
Mean anomaly
307.4299°
Rev number
5,430

§ Raw data

STARLINK-354361 65932U 25225Y   26263.85269399  .00011582  00000+0  35379-3 0  99972 65932  53.1599 338.0889 0001215  52.6814 307.4299 15.34363714 54306

JSON: /api/v1/satellites/65932 · /tle

For live sub-satellite position, see the globe view (requires WebGL).

§ Visibility from observer

Set your observer location to see the next 7 days of passes ≥ 10°. The values pass through the URL so the page stays shareable.

No JS? Fill the form by hand. The geolocation button needs JavaScript.